User: anonymous   Login
Location: Vigo di Fassa
(46.4167°N, 11.6667°E)
Time: 01:49:18
(UTC+00:00)
Language:

ASTEX 1 - Orbit

View from above orbital plane
View from above orbital plane
View from above satellite
View from above satellite

Ground track
Ground track

The orbit data is extracted from the following two-line orbital elements,

1 05560U 71089A   21125.45850491  .00000096  00000-0  26095-4 0  9999
2 05560  92.7139 300.6325 0013996 288.7383  71.2302 14.48127912606124
Epoch (UTC): 05 May 2021 11:00:14
Eccentricity: 0.0013996
inclination: 92.7139°
perigee height: 722 km
apogee height: 742 km
right ascension of ascending node: 300.6325°
argument of perigee: 288.7383°
revolutions per day: 14.48127912
mean anomaly at epoch: 71.2302°
orbit number at epoch: 60612

The dashed part of the orbit path shows where the satellite is in the earth's shadow,  

DLR